When you browse on this site, cookies collect data to enhance your experience and personalize the content and advertising you see.
Visit our Privacy Policy to learn more. By continuing to use the site, you agree to this use of cookies and data.
  • In Romania
  • List of Countries
  • For 7 days
  • Water Temperature
  • Weather Map
  • Weather Widgets
  • user-avatar
    Login

    Hourly Weather Salamanca

    Today, 3 June, Wednesday

    Time Temperature Precipitation Wind Pressure Humidity
    00:00 +17°C° 0 mm 3 mps 691 mmHg 77%
    01:00 +16°C° 0 mm 2 mps 691 mmHg 81%
    02:00 +16°C° 0 mm 2 mps 690 mmHg 84%
    03:00 +15°C° 0 mm 2 mps 690 mmHg 88%
    04:00 +15°C° 0 mm 2 mps 690 mmHg 88%
    05:00 +15°C° 0 mm 2 mps 690 mmHg 89%
    06:00 +15°C° 0 mm 2 mps 690 mmHg 89%
    07:00 +17°C° 0 mm 2 mps 690 mmHg 81%
    08:00 +19°C° 0 mm 3 mps 690 mmHg 74%
    09:00 +21°C° 0 mm 3 mps 690 mmHg 66%
    10:00 +22°C° 0 mm 4 mps 690 mmHg 60%
    11:00 +23°C° 0 mm 5 mps 690 mmHg 54%
    12:00 +25°C° 0 mm 5 mps 690 mmHg 48%
    13:00 +24°C° 0.1 mm 6 mps 689 mmHg 50%
    14:00 +24°C° 0.1 mm 7 mps 689 mmHg 51%
    15:00 +24°C° 0.1 mm 7 mps 688 mmHg 53%
    16:00 +23°C° 0.4 mm 7 mps 688 mmHg 58%
    17:00 +22°C° 0.4 mm 7 mps 688 mmHg 63%
    18:00 +21°C° 0.4 mm 7 mps 687 mmHg 68%
    19:00 +18°C° 0.4 mm 7 mps 687 mmHg 75%
    20:00 +17°C° 0.4 mm 6 mps 687 mmHg 81%
    21:00 +15°C° 0.4 mm 6 mps 687 mmHg 88%
    22:00 +15°C° 0.2 mm 6 mps 687 mmHg 89%
    23:00 +14°C° 0.2 mm 5 mps 687 mmHg 90%

    Tomorrow, 4 June, Thursday

    Time Temperature Precipitation Wind Pressure Humidity
    00:00 +13°C° 0.2 mm 5 mps 687 mmHg 91%
    01:00 +13°C° 0.1 mm 5 mps 686 mmHg 91%
    02:00 +13°C° 0.1 mm 5 mps 686 mmHg 92%
    03:00 +13°C° 0.1 mm 5 mps 686 mmHg 92%
    04:00 +13°C° 0.1 mm 5 mps 686 mmHg 89%
    05:00 +13°C° 0.1 mm 6 mps 686 mmHg 87%
    06:00 +13°C° 0.1 mm 6 mps 686 mmHg 85%
    07:00 +14°C° 0 mm 6 mps 687 mmHg 76%
    08:00 +15°C° 0 mm 6 mps 687 mmHg 67%
    09:00 +16°C° 0 mm 6 mps 688 mmHg 57%
    10:00 +17°C° 0 mm 6 mps 688 mmHg 52%
    11:00 +19°C° 0 mm 6 mps 688 mmHg 47%
    12:00 +20°C° 0 mm 7 mps 688 mmHg 42%
    13:00 +21°C° 0 mm 7 mps 688 mmHg 40%
    14:00 +21°C° 0 mm 7 mps 688 mmHg 39%
    15:00 +21°C° 0 mm 7 mps 688 mmHg 37%
    16:00 +21°C° 0 mm 6 mps 688 mmHg 39%
    17:00 +20°C° 0 mm 6 mps 688 mmHg 41%
    18:00 +20°C° 0 mm 5 mps 688 mmHg 43%
    19:00 +18°C° 0 mm 4 mps 688 mmHg 49%
    20:00 +17°C° 0 mm 3 mps 689 mmHg 54%
    21:00 +15°C° 0 mm 2 mps 689 mmHg 60%
    22:00 +14°C° 0 mm 2 mps 689 mmHg 64%
    23:00 +13°C° 0 mm 2 mps 689 mmHg 68%

    Day after tomorrow, 5 June, Friday

    Time Temperature Precipitation Wind Pressure Humidity
    00:00 +12°C° 0 mm 1 mps 689 mmHg 72%
    01:00 +12°C° 0 mm 1 mps 689 mmHg 74%
    02:00 +11°C° 0 mm 1 mps 689 mmHg 75%
    03:00 +11°C° 0 mm 1 mps 689 mmHg 76%
    04:00 +11°C° 0 mm 1 mps 689 mmHg 76%
    05:00 +11°C° 0 mm 1 mps 689 mmHg 76%
    06:00 +12°C° 0 mm 1 mps 689 mmHg 76%
    07:00 +13°C° 0 mm 1 mps 690 mmHg 69%
    08:00 +14°C° 0 mm 0 mps 690 mmHg 62%
    09:00 +16°C° 0 mm 0 mps 690 mmHg 54%
    10:00 +20°C° 0 mm 1 mps 691 mmHg 49%
    11:00 +21°C° 0 mm 1 mps 691 mmHg 44%
    12:00 +21°C° 0 mm 2 mps 691 mmHg 39%
    13:00 +23°C° 0 mm 2 mps 691 mmHg 37%
    14:00 +24°C° 0 mm 3 mps 690 mmHg 35%
    15:00 +25°C° 0 mm 3 mps 690 mmHg 34%
    16:00 +24°C° 0 mm 3 mps 690 mmHg 35%
    17:00 +24°C° 0 mm 3 mps 690 mmHg 37%
    18:00 +23°C° 0 mm 4 mps 690 mmHg 39%
    19:00 +21°C° 0 mm 3 mps 690 mmHg 44%
    20:00 +19°C° 0 mm 2 mps 690 mmHg 49%
    21:00 +18°C° 0 mm 1 mps 690 mmHg 54%
    22:00 +16°C° 0 mm 2 mps 690 mmHg 60%
    23:00 +14°C° 0 mm 3 mps 689 mmHg 67%

    6 June, Saturday

    Time Temperature Precipitation Wind Pressure Humidity
    00:00 +13°C° 0 mm 3 mps 689 mmHg 73%
    01:00 +13°C° 0 mm 3 mps 689 mmHg 77%
    02:00 +12°C° 0 mm 3 mps 689 mmHg 80%
    03:00 +12°C° 0 mm 3 mps 689 mmHg 84%
    04:00 +12°C° 0 mm 3 mps 689 mmHg 83%
    05:00 +12°C° 0 mm 3 mps 689 mmHg 82%
    06:00 +13°C° 0 mm 3 mps 689 mmHg 81%
    07:00 +16°C° 0 mm 3 mps 690 mmHg 72%
    08:00 +18°C° 0 mm 3 mps 690 mmHg 64%
    09:00 +20°C° 0 mm 3 mps 690 mmHg 55%
    10:00 +21°C° 0 mm 4 mps 690 mmHg 51%
    11:00 +22°C° 0 mm 4 mps 690 mmHg 47%
    12:00 +23°C° 0 mm 4 mps 690 mmHg 44%
    13:00 +23°C° 0 mm 5 mps 690 mmHg 43%
    14:00 +23°C° 0 mm 5 mps 690 mmHg 42%
    15:00 +23°C° 0 mm 5 mps 689 mmHg 41%
    16:00 +23°C° 0 mm 5 mps 689 mmHg 44%
    17:00 +22°C° 0 mm 5 mps 689 mmHg 47%
    18:00 +22°C° 0 mm 5 mps 689 mmHg 50%
    19:00 +20°C° 0 mm 5 mps 689 mmHg 58%
    20:00 +18°C° 0 mm 4 mps 689 mmHg 66%
    21:00 +16°C° 0 mm 3 mps 689 mmHg 74%
    22:00 +14°C° 0 mm 3 mps 689 mmHg 78%
    23:00 +13°C° 0 mm 3 mps 689 mmHg 82%

    7 June, Sunday

    Time Temperature Precipitation Wind Pressure Humidity
    00:00 +13°C° 0 mm 2 mps 689 mmHg 87%
    01:00 +13°C° 0 mm 2 mps 689 mmHg 89%
    02:00 +12°C° 0 mm 2 mps 689 mmHg 91%
    03:00 +12°C° 0 mm 2 mps 689 mmHg 93%
    04:00 +12°C° 0 mm 2 mps 689 mmHg 92%
    05:00 +12°C° 0 mm 2 mps 689 mmHg 92%
    06:00 +12°C° 0 mm 2 mps 689 mmHg 91%
    07:00 +14°C° 0 mm 2 mps 690 mmHg 85%
    08:00 +15°C° 0 mm 2 mps 690 mmHg 78%
    09:00 +17°C° 0 mm 2 mps 690 mmHg 72%
    10:00 +18°C° 0 mm 2 mps 691 mmHg 67%
    11:00 +19°C° 0 mm 3 mps 691 mmHg 62%
    12:00 +20°C° 0 mm 3 mps 691 mmHg 57%
    13:00 +21°C° 0 mm 3 mps 691 mmHg 53%
    14:00 +22°C° 0 mm 4 mps 691 mmHg 49%
    15:00 +23°C° 0 mm 4 mps 691 mmHg 44%
    16:00 +22°C° 0 mm 5 mps 691 mmHg 47%
    17:00 +22°C° 0 mm 5 mps 691 mmHg 49%
    18:00 +21°C° 0 mm 5 mps 691 mmHg 52%
    19:00 +19°C° 0 mm 5 mps 691 mmHg 59%
    20:00 +17°C° 0 mm 4 mps 691 mmHg 66%
    21:00 +14°C° 0 mm 3 mps 691 mmHg 73%
    22:00 +13°C° 0 mm 3 mps 691 mmHg 77%
    23:00 +13°C° 0 mm 2 mps 692 mmHg 81%

    8 June, Monday

    Time Temperature Precipitation Wind Pressure Humidity
    00:00 +12°C° 0 mm 2 mps 692 mmHg 86%
    01:00 +12°C° 0 mm 2 mps 691 mmHg 86%
    02:00 +10°C° 0 mm 2 mps 691 mmHg 86%
    03:00 +10°C° 0 mm 2 mps 691 mmHg 87%
    04:00 +10°C° 0 mm 2 mps 691 mmHg 85%
    05:00 +10°C° 0 mm 2 mps 691 mmHg 83%
    06:00 +10°C° 0 mm 3 mps 691 mmHg 81%
    07:00 +12°C° 0 mm 3 mps 692 mmHg 74%
    08:00 +14°C° 0 mm 3 mps 692 mmHg 68%
    09:00 +17°C° 0 mm 3 mps 692 mmHg 61%
    10:00 +18°C° 0 mm 3 mps 692 mmHg 55%
    11:00 +20°C° 0 mm 3 mps 692 mmHg 50%
    12:00 +21°C° 0 mm 2 mps 693 mmHg 44%
    13:00 +23°C° 0 mm 2 mps 692 mmHg 41%
    14:00 +24°C° 0 mm 2 mps 692 mmHg 38%
    15:00 +24°C° 0 mm 2 mps 692 mmHg 35%
    16:00 +24°C° 0 mm 2 mps 691 mmHg 36%
    17:00 +24°C° 0 mm 3 mps 691 mmHg 37%
    18:00 +22°C° 0 mm 3 mps 691 mmHg 38%
    19:00 +20°C° 0 mm 3 mps 691 mmHg 43%
    20:00 +18°C° 0 mm 3 mps 691 mmHg 48%
    21:00 +15°C° 0 mm 4 mps 691 mmHg 53%
    22:00 +14°C° 0 mm 3 mps 692 mmHg 59%
    23:00 +14°C° 0 mm 3 mps 692 mmHg 65%
    Show more